Date,TemperatureHighF,TemperatureAvgF,TemperatureLowF,DewpointHighF,DewpointAvgF,DewpointLowF,HumidityHigh,HumidityAvg,HumidityLow,PressureMaxIn,PressureMinIn,WindSpeedMaxMPH,WindSpeedAvgMPH,GustSpeedMaxMPH,PrecipitationSumIn
2013-1-1,21,17,11,17,14,8,88,85,72,30.37,30.23,4,0,9,0.00
2013-1-2,29,9,5,20,6,2,90,88,68,30.35,30.24,3,0,11,0.00
2013-1-3,34,24,20,28,21,15,93,88,77,30.46,30.30,6,1,8,0.04
2013-1-4,32,16,12,25,14,10,93,90,76,30.47,30.36,2,0,9,0.04
2013-1-5,36,28,25,34,24,21,93,84,80,30.35,30.16,4,1,12,0.07
2013-1-6,32,29,23,27,24,20,87,79,72,30.41,30.16,15,6,19,0.00
2013-1-7,44,24,20,29,20,18,91,85,55,30.42,30.19,5,2,11,0.00
2013-1-8,46,46,45,29,29,29,53,52,52,30.12,30.10,1,0,7,0.00
2013-1-10,47,47,45,47,46,45,98,98,98,29.90,29.78,3,1,9,0.36
2013-1-11,60,51,46,52,48,45,99,90,67,29.85,29.71,6,2,18,0.00
2013-1-12,56,45,31,48,36,25,84,71,54,30.04,29.75,13,3,18,0.00
2013-1-13,23,19,13,15,12,9,85,74,65,30.43,30.13,11,3,16,0.00
2013-1-14,26,14,9,12,9,6,91,80,52,30.59,30.44,2,0,5,0.00
2013-1-15,30,16,8,17,11,6,91,80,56,30.51,30.23,2,0,12,0.00
2013-1-16,42,23,13,26,17,10,92,78,46,30.24,30.05,15,1,18,0.06
2013-1-17,38,32,24,30,25,20,90,76,52,30.52,30.21,7,2,12,0.00
2013-1-18,53,34,24,33,25,21,86,73,47,30.52,30.10,7,2,17,0.03
2013-1-19,58,43,38,40,32,27,79,66,48,30.20,29.94,12,3,23,0.00
2013-1-20,39,24,18,24,13,9,78,63,43,30.42,30.22,11,3,18,0.00
2013-1-21,18,15,11,13,3,-4,79,60,43,30.49,30.40,13,6,20,0.00
2013-1-22,17,12,8,10,4,-1,79,70,61,30.58,30.44,5,1,9,0.00
2013-1-23,40,20,11,24,13,8,88,75,51,30.49,30.24,9,2,16,0.00
2013-1-24,24,18,11,12,7,4,71,61,51,30.67,30.32,14,4,18,0.00
2013-1-25,42,29,24,23,17,13,69,61,44,30.30,30.17,8,1,14,0.00
2013-1-26,38,27,15,23,15,9,77,61,40,30.46,30.31,8,2,12,0.00
2013-1-27,51,36,29,50,31,19,96,82,64,30.32,29.90,10,4,16,0.02
2013-1-28,71,59,51,62,55,50,95,88,74,29.95,29.77,9,2,14,0.01
2013-1-29,63,58,40,60,56,40,99,93,85,29.77,29.45,8,2,16,1.94
2013-1-30,37,31,26,37,27,17,98,85,68,29.93,29.34,17,7,28,0.14
2013-1-31,25,19,8,18,10,-1,75,68,55,30.48,29.97,19,9,22,0.00
2013-2-1,26,12,4,19,4,-2,84,69,54,30.55,30.27,8,4,15,0.00
2013-2-2,34,30,26,24,20,18,92,68,62,30.22,30.11,11,3,18,0.00
2013-2-3,35,29,26,27,24,16,95,81,50,30.26,30.03,16,7,23,0.00
2013-2-4,43,31,26,31,22,17,85,72,61,30.04,29.86,6,1,14,0.01
2013-2-5,47,30,24,35,26,22,91,85,63,30.17,29.95,9,1,15,0.00
2013-2-6,55,43,28,34,31,26,96,65,41,30.23,30.05,8,3,16,0.00
2013-2-7,43,38,34,42,37,32,97,95,94,30.14,29.91,9,3,16,0.62
2013-2-8,33,32,31,29,28,28,88,86,85,30.44,30.38,5,2,12,0.00
2013-2-9,31,30,29,28,27,26,89,87,86,30.40,30.34,6,4,11,0.00
2013-2-10,62,52,42,53,40,29,96,64,40,29.76,29.48,14,8,26,0.28
2013-2-11,46,39,30,30,28,26,84,66,51,30.20,30.08,17,4,24,0.00
2013-2-12,42,36,32,29,28,26,84,73,56,30.10,30.00,1,0,4,0.00
2013-2-13,46,38,28,33,31,26,92,76,58,29.92,29.85,4,0,6,0.00
2013-2-14,49,43,37,34,30,27,68,58,53,30.12,29.98,14,5,17,0.00
2013-2-15,38,30,23,24,16,14,77,55,40,30.35,30.21,12,4,15,0.00
2013-2-16,35,28,16,18,16,12,83,60,47,30.34,30.23,12,3,16,0.00
2013-2-17,48,40,24,32,24,18,81,55,38,30.23,29.88,11,6,20,0.00
2013-2-18,56,42,28,49,36,20,95,80,66,29.95,29.50,14,7,26,0.38
2013-2-19,28,24,19,19,12,10,74,62,50,30.39,29.97,20,6,21,0.00
2013-2-20,22,21,16,15,13,7,78,71,64,30.50,30.37,4,1,9,0.00
2013-2-21,26,24,19,25,22,14,94,92,79,30.40,29.91,11,6,21,0.00
2013-2-22,30,27,20,27,22,17,90,80,75,30.11,29.95,15,4,16,0.00
2013-2-23,32,22,17,22,17,14,90,80,64,30.09,30.06,3,0,8,0.02
2013-2-24,45,33,16,26,23,13,92,68,46,30.17,30.08,6,3,12,0.05
2013-2-25,42,36,27,33,29,23,86,77,57,30.13,29.80,12,4,22,0.00
2013-2-26,36,33,32,33,32,30,97,96,85,29.78,29.49,10,5,17,0.18
2013-2-27,32,31,30,30,29,28,96,95,93,29.95,29.74,10,7,16,0.03
2013-2-28,34,31,29,30,29,27,94,91,81,30.18,30.14,8,3,11,0.01
2013-3-1,33,29,25,29,25,20,94,87,74,30.32,30.16,10,3,13,0.00
2013-3-2,32,26,18,23,20,14,91,76,57,30.35,30.29,12,3,15,0.00
2013-3-3,36,26,14,25,20,12,93,77,59,30.30,30.06,11,2,13,0.00
2013-3-4,44,37,33,33,30,25,89,74,58,30.06,29.81,17,6,19,0.08
2013-3-5,35,32,30,32,28,22,96,84,65,30.25,29.91,22,7,27,0.06
2013-3-6,36,30,22,24,22,18,88,75,62,30.44,30.24,15,4,25,0.00
2013-3-7,41,30,17,30,24,15,94,78,55,30.48,30.36,8,2,10,0.00
2013-3-8,48,40,29,35,31,27,91,73,57,30.44,30.18,13,5,17,0.00
2013-3-9,58,47,38,46,40,34,96,77,53,30.18,29.75,11,5,17,1.05
2013-3-10,51,48,38,51,48,37,99,97,90,29.79,29.58,13,2,18,1.27
2013-3-11,38,33,30,37,30,25,97,88,74,30.03,29.75,21,6,24,0.00
2013-3-12,42,33,24,30,26,21,91,77,58,30.29,30.01,22,6,25,0.00
2013-3-13,40,31,24,24,20,18,82,64,47,30.50,30.29,18,5,23,0.00
2013-3-14,60,41,26,41,29,20,82,65,44,30.45,30.11,14,2,16,0.00
2013-3-15,73,53,34,52,41,30,86,66,40,30.13,29.67,10,1,15,0.00
2013-3-16,54,42,37,48,36,32,91,82,76,30.13,29.64,11,3,13,0.00
2013-3-17,38,35,33,33,30,27,95,84,72,30.17,29.85,17,5,19,0.09
2013-3-18,50,39,32,37,31,20,97,77,41,30.08,29.76,25,6,32,0.17
2013-3-19,44,34,28,22,18,13,67,51,34,30.27,30.06,15,4,16,0.00
2013-3-20,35,28,21,29,15,10,78,61,39,30.36,30.19,19,5,23,0.00
2013-3-21,37,26,14,17,14,11,87,62,44,30.20,30.05,7,1,11,0.00
2013-3-22,39,33,25,26,22,16,80,65,49,30.13,30.05,12,1,13,0.00
2013-3-23,51,42,34,33,28,25,87,59,42,30.11,29.93,15,3,19,0.01
2013-3-24,36,31,30,33,30,29,97,96,88,29.98,29.75,13,4,17,0.01
2013-3-25,35,31,29,31,28,25,97,88,70,30.27,29.93,15,4,19,0.06
2013-3-26,40,33,25,28,25,20,87,74,55,30.41,30.27,12,4,16,0.08
2013-3-27,47,36,22,30,26,20,93,69,48,30.45,30.35,6,1,9,0.00
2013-3-28,54,43,35,38,32,26,77,65,52,30.40,30.26,12,4,15,0.00
2013-3-29,61,48,35,45,39,32,89,71,47,30.30,30.21,10,2,19,0.00
2013-3-30,56,47,41,48,44,39,97,87,63,30.23,29.94,15,3,20,0.09
2013-3-31,62,50,43,49,42,31,98,78,45,30.02,29.89,14,3,18,0.00
2013-4-1,45,38,32,32,24,18,74,57,35,30.32,30.01,14,4,19,0.00
2013-4-2,49,37,23,25,21,15,86,55,29,30.42,30.31,10,2,13,0.00
2013-4-3,51,40,28,28,23,19,73,52,33,30.48,30.31,19,3,19,0.00
2013-4-4,61,48,33,32,28,25,80,48,31,30.31,30.07,9,1,11,0.00
2013-4-5,66,52,39,38,35,30,84,54,31,30.22,30.01,10,2,14,0.00
2013-4-6,74,63,54,52,43,38,59,49,35,30.01,29.67,21,5,28,0.00
2013-4-7,77,64,49,56,46,42,82,53,32,29.92,29.73,12,2,14,0.04
2013-4-8,75,65,54,63,58,51,97,80,65,29.82,29.65,14,2,23,0.27
2013-4-9,78,70,65,65,61,58,83,73,62,29.83,29.73,18,4,20,0.00
2013-4-10,71,55,47,64,53,46,99,93,75,29.90,29.64,20,4,27,2.28
2013-4-11,52,42,38,52,39,31,99,88,74,29.75,29.67,13,4,17,0.04
2013-4-12,44,40,36,35,33,31,86,77,71,30.04,29.75,16,5,23,0.00
2013-4-13,57,45,33,41,35,30,92,71,48,30.09,29.90,13,3,16,0.00
2013-4-14,81,65,50,56,48,40,97,56,30,29.90,29.52,19,6,30,0.37
2013-4-15,57,53,43,56,49,39,99,87,72,30.05,29.72,12,2,18,0.54
2013-4-16,50,45,42,42,41,38,95,84,71,30.23,30.00,13,3,15,0.20
2013-4-17,57,51,46,56,49,42,98,92,77,30.19,29.66,19,5,29,0.66
2013-4-18,63,52,39,63,50,32,100,93,75,29.81,29.49,25,6,27,2.36
2013-4-19,48,41,36,32,29,26,79,64,45,30.12,29.79,28,9,32,0.00
2013-4-20,54,42,28,33,27,22,89,58,33,30.36,30.12,8,2,15,0.00
2013-4-21,66,53,41,45,39,33,76,60,44,30.40,30.23,14,6,22,0.00
2013-4-22,70,60,48,45,41,36,64,51,33,30.27,29.96,15,3,16,0.00
2013-4-23,60,45,38,49,41,36,96,87,56,30.11,29.92,12,3,16,0.52
2013-4-24,53,42,34,37,32,29,96,71,41,30.26,30.08,14,4,17,0.07
2013-4-25,64,51,40,38,34,29,81,55,32,30.36,30.24,13,3,18,0.00
2013-4-26,61,55,50,50,44,36,87,69,57,30.35,30.25,13,3,16,0.02
2013-4-27,52,50,47,51,48,44,98,93,84,30.30,30.00,7,2,10,0.36
2013-4-28,66,55,50,55,51,49,99,88,66,30.00,29.89,8,2,9,0.00
2013-4-29,85,67,48,66,56,47,97,73,41,29.92,29.69,17,4,19,0.00
2013-4-30,87,78,64,63,57,52,86,50,33,29.90,29.78,14,2,18,0.00
2013-5-1,85,74,62,59,55,51,74,54,36,30.09,29.90,11,3,13,0.00
2013-5-2,61,47,38,51,42,36,95,82,69,30.26,30.09,13,5,18,0.33
2013-5-3,40,38,36,39,37,35,96,96,95,30.19,29.92,17,4,22,1.57
2013-5-4,48,44,38,46,43,37,98,94,86,30.08,29.89,5,0,6,0.02
2013-5-5,65,54,43,59,52,42,99,92,74,30.07,29.94,13,2,18,0.12
2013-5-6,74,62,52,58,54,52,98,78,49,30.06,29.98,12,2,18,0.01
2013-5-7,80,68,53,56,49,42,87,56,30,30.05,29.97,8,1,11,0.00
2013-5-8,82,67,53,60,54,47,91,66,37,30.04,29.96,11,1,13,0.00
2013-5-9,72,63,58,66,61,57,99,93,76,29.96,29.82,8,1,16,1.41
2013-5-10,59,56,51,58,54,50,100,94,80,30.05,29.85,11,2,13,0.00
2013-5-11,62,54,43,54,41,32,99,68,33,30.22,30.01,17,3,30,0.01
2013-5-12,61,49,36,35,31,26,78,53,29,30.28,30.17,13,2,19,0.00
2013-5-13,75,58,36,48,42,35,97,61,29,30.24,29.99,7,1,11,0.00
2013-5-14,90,74,56,64,56,46,83,56,32,29.99,29.75,9,2,17,0.00
2013-5-15,88,77,67,68,61,54,94,58,45,29.88,29.77,13,2,16,0.21
2013-5-16,84,68,62,70,64,58,99,88,55,29.94,29.83,7,0,12,0.05
2013-5-17,78,69,59,68,62,54,94,80,67,29.97,29.90,7,2,11,0.00
2013-5-18,81,71,63,70,66,62,99,84,63,30.00,29.84,11,3,13,0.00
2013-5-19,90,78,68,74,69,65,92,75,50,29.87,29.61,17,3,18,0.00
2013-5-20,83,69,61,69,64,60,99,84,51,29.87,29.65,16,3,26,1.56
2013-5-21,78,68,61,67,62,58,100,82,58,29.75,29.67,8,1,14,0.00
2013-5-22,71,64,60,60,57,53,95,78,60,29.89,29.67,11,2,17,0.00
2013-5-23,67,60,55,57,54,51,89,80,65,30.26,29.88,13,3,18,0.00
2013-5-24,68,58,47,51,47,42,96,68,43,30.43,30.26,11,3,16,0.00
2013-5-25,69,58,53,60,52,45,95,79,66,30.37,30.16,13,4,17,0.65
2013-5-26,76,64,53,66,59,49,95,83,70,30.19,29.97,13,4,15,0.00
2013-5-27,74,67,63,67,65,63,99,93,76,29.98,29.66,9,1,14,1.67
2013-5-28,78,72,62,72,68,60,98,86,77,29.94,29.72,14,2,28,0.55
2013-5-29,86,74,62,72,66,60,97,78,52,29.96,29.75,12,2,18,0.08
2013-5-30,84,72,62,70,66,61,100,83,60,29.84,29.71,20,4,34,2.12
2013-5-31,71,64,61,71,64,61,100,100,100,29.90,29.68,10,2,19,0.92
2013-6-1,76,67,61,70,62,57,100,87,59,29.90,29.71,16,3,23,0.01
2013-6-2,64,61,56,58,55,50,88,81,70,30.07,29.88,11,3,14,0.00
2013-6-3,71,61,48,56,52,47,96,73,56,30.14,30.00,9,2,13,0.00
2013-6-4,75,64,52,61,56,50,95,77,59,30.10,29.98,9,3,15,0.00
2013-6-5,77,69,66,66,65,63,98,88,65,29.92,29.88,7,0,11,0.07
2013-6-6,75,67,60,65,59,54,99,78,51,29.92,29.87,10,2,15,0.01
2013-6-7,75,64,54,61,56,53,96,78,52,29.95,29.90,9,2,12,0.00
2013-6-8,81,67,52,62,57,52,99,72,45,29.97,29.88,7,1,9,0.00
2013-6-9,78,67,61,67,61,56,99,83,63,29.92,29.75,13,2,17,0.16
2013-6-10,82,68,61,67,63,60,100,85,58,29.91,29.78,7,1,12,0.01
2013-6-11,89,76,61,76,69,60,99,80,58,29.94,29.80,7,1,11,0.00
2013-6-12,94,82,70,77,72,66,91,73,51,29.90,29.68,15,2,24,0.00
2013-6-13,84,75,67,66,62,57,85,65,40,30.00,29.77,20,4,21,0.00
2013-6-14,79,70,60,68,63,58,96,81,61,30.12,29.91,11,2,13,0.04
2013-6-15,89,75,66,77,68,62,100,82,60,30.10,29.88,22,2,27,0.56
2013-6-16,84,74,66,75,70,66,100,90,71,30.02,29.90,4,0,6,0.10
2013-6-17,84,75,66,74,70,64,100,86,66,29.97,29.89,7,1,10,0.00
2013-6-18,85,74,64,70,64,58,100,75,42,29.99,29.92,8,2,14,0.00
2013-6-19,86,74,63,68,63,59,89,68,44,30.08,29.99,5,1,9,0.00
2013-6-20,90,78,65,73,68,62,92,72,51,30.09,29.99,9,2,13,0.00
2013-6-21,93,82,73,78,73,68,85,74,58,30.06,29.91,8,2,13,0.00
2013-6-22,93,81,72,78,73,66,89,78,54,30.05,29.92,12,2,18,0.00
2013-6-23,91,73,68,77,68,65,99,85,61,30.02,29.84,11,2,25,0.81
2013-6-24,92,79,67,78,72,66,97,80,58,30.03,29.91,12,1,12,0.00
2013-6-26,89,83,75,80,76,72,93,81,66,29.81,29.70,10,1,13,0.40
2013-6-27,90,79,68,76,70,66,94,75,52,29.91,29.80,11,2,19,0.00
2013-6-28,85,78,68,71,64,55,96,66,38,29.86,29.72,17,4,22,0.00
2013-6-29,79,70,62,67,62,59,97,77,61,29.80,29.67,18,4,20,0.07
2013-6-30,72,65,63,64,63,62,98,92,72,29.98,29.80,9,2,16,0.08
2013-7-1,80,70,60,63,57,52,93,67,43,30.04,29.99,13,3,17,0.00
2013-7-2,77,69,60,64,57,53,85,67,47,30.07,30.01,9,2,15,0.00
2013-7-3,85,70,58,65,60,56,94,73,45,30.06,29.98,7,1,10,0.00
2013-7-4,86,73,59,69,63,58,98,73,43,30.08,29.98,4,1,7,0.00
2013-7-5,88,75,64,69,64,60,88,70,47,30.06,29.96,8,1,13,0.00
2013-7-6,91,75,65,72,67,63,96,76,47,30.03,29.92,6,1,11,0.00
2013-7-7,92,79,67,75,68,63,89,71,46,30.00,29.94,6,1,13,0.00
2013-7-8,92,81,74,78,72,68,90,75,55,30.05,29.97,4,0,13,0.00
2013-7-9,95,84,76,78,74,71,89,71,51,30.02,29.86,6,1,13,0.00
2013-7-10,89,80,69,76,70,61,95,72,48,30.02,29.83,11,2,14,0.01
2013-7-11,84,73,60,65,61,58,95,69,44,30.08,30.01,8,1,11,0.00
2013-7-12,85,73,61,64,58,52,91,62,34,30.12,30.04,10,2,14,0.00
2013-7-13,85,73,57,66,61,54,95,67,46,30.10,30.02,9,2,13,0.00
2013-7-14,88,77,67,69,66,62,89,69,49,30.12,30.07,11,2,14,0.00
2013-7-15,89,80,74,79,75,72,94,85,72,30.22,30.13,3,0,4,0.61
2013-7-16,94,82,72,77,74,71,98,79,54,30.28,30.21,8,1,10,0.00
2013-7-17,96,84,73,78,74,71,96,74,52,30.30,30.17,4,0,7,0.00
2013-7-18,96,85,73,77,74,71,97,72,47,30.20,29.97,6,0,9,0.00
2013-7-19,96,85,73,76,71,68,90,66,41,29.98,29.82,11,1,16,0.00
2013-7-20,88,80,70,73,70,67,92,74,55,29.91,29.83,8,1,10,0.00
2013-7-21,82,72,66,74,70,66,99,91,73,29.91,29.81,13,1,13,0.62
2013-7-22,93,77,63,78,71,63,100,85,57,29.87,29.74,5,0,7,0.01
2013-7-23,85,76,67,74,67,62,95,75,53,29.93,29.76,9,2,14,0.00
2013-7-24,79,70,62,62,59,56,94,71,53,30.05,29.93,11,2,13,0.00
2013-7-25,84,70,56,65,60,55,98,74,48,30.12,30.04,7,1,10,0.00
2013-7-26,79,71,62,73,66,60,98,85,77,30.06,29.92,16,1,20,0.99
2013-7-27,73,64,56,60,54,50,97,73,48,30.04,29.98,13,2,15,0.00
2013-7-28,79,64,49,58,52,48,98,69,42,30.07,30.00,11,1,17,0.00
2013-7-29,79,65,52,65,59,51,98,82,50,30.15,30.07,8,1,10,0.01
2013-7-30,82,72,64,74,68,63,98,90,75,30.11,29.98,8,2,12,0.43
2013-7-31,79,71,65,72,68,64,99,91,73,30.08,30.01,8,1,9,0.01
2013-8-1,88,74,63,71,66,61,100,77,46,30.09,29.96,6,1,9,0.00
2013-8-2,83,72,66,74,68,64,99,88,68,29.98,29.90,5,0,9,0.74
2013-8-3,82,73,65,69,66,59,100,79,51,30.15,29.95,9,1,11,0.01
2013-8-4,79,70,59,67,62,58,98,78,53,30.19,30.07,8,1,11,0.00
2013-8-5,79,72,65,72,67,61,96,85,77,30.09,29.83,8,1,11,0.00
2013-8-6,86,76,68,77,72,67,100,89,69,29.91,29.81,5,1,8,0.00
2013-8-7,87,75,70,78,73,68,100,93,74,29.94,29.78,6,1,10,0.30
2013-8-8,80,73,68,72,69,66,97,87,74,30.00,29.92,6,1,7,0.00
2013-8-9,80,73,67,72,68,66,98,85,66,30.09,29.97,5,0,8,0.00
2013-8-10,82,73,64,68,62,57,98,72,47,30.17,30.09,9,1,14,0.00
2013-8-11,87,73,57,69,63,57,98,73,48,30.16,30.03,8,1,11,0.00
2013-8-12,76,71,66,71,68,65,98,92,83,30.00,29.93,3,0,4,0.30
2013-8-13,79,69,61,66,61,55,97,79,55,30.16,29.99,9,2,12,0.01
2013-8-14,76,64,55,59,54,52,91,72,44,30.18,30.13,6,0,9,0.00
2013-8-15,75,64,55,59,55,52,96,74,52,30.19,30.09,8,1,14,0.00
2013-8-16,78,68,59,60,58,55,93,71,47,30.18,30.12,12,2,16,0.00
2013-8-17,80,70,56,63,58,55,97,67,47,30.21,30.12,10,2,13,0.00
2013-8-18,84,70,58,65,61,55,95,76,50,30.19,30.08,5,1,9,0.00
2013-8-19,87,74,60,70,65,60,99,77,49,30.13,30.02,6,1,9,0.00
2013-8-20,91,76,63,71,66,62,97,76,41,30.10,30.00,5,1,11,0.00
2013-8-21,92,78,65,71,68,64,97,73,46,30.09,30.00,6,1,9,0.00
2013-8-22,90,78,67,75,71,66,95,80,56,30.09,30.00,8,1,10,0.00
2013-8-23,91,79,69,75,71,68,97,79,53,30.11,30.03,10,2,12,0.00
2013-8-24,91,79,68,74,70,67,95,75,53,30.19,30.09,9,2,11,0.00
2013-8-25,94,80,67,72,67,62,93,69,36,30.24,30.13,7,1,11,0.00
2013-8-26,75,69,66,71,66,64,97,90,81,30.17,30.14,2,0,3,0.00
2013-9-3,82,70,58,56,52,49,82,55,39,30.07,30.01,5,0,6,0.00
2013-9-4,89,70,52,62,55,50,97,63,27,30.17,30.07,5,1,11,0.00
2013-9-5,90,74,59,66,60,56,93,66,34,30.19,30.11,7,1,11,0.00
2013-9-6,93,77,62,68,62,55,95,65,30,30.17,30.00,8,1,12,0.00
2013-9-7,96,78,61,69,64,58,95,64,37,30.04,29.87,9,1,13,0.00
2013-9-8,92,79,71,76,71,66,97,77,55,29.96,29.84,11,2,17,0.20
2013-9-9,99,83,71,74,69,66,96,67,35,29.93,29.84,9,1,15,0.00
2013-9-10,97,82,70,70,66,64,87,60,35,30.05,29.93,12,1,18,0.00
2013-9-11,96,81,67,69,65,62,88,62,33,30.10,29.99,10,1,15,0.00
2013-9-12,84,73,60,72,63,48,99,75,34,30.12,30.01,9,2,15,0.58
2013-9-13,75,62,53,59,50,42,91,67,33,30.18,30.10,10,2,14,0.00
2013-9-14,75,61,45,52,48,43,95,64,40,30.18,30.02,9,2,17,0.00
2013-9-15,80,66,57,67,57,46,96,74,51,30.17,29.96,9,2,15,0.07
2013-9-16,70,62,56,59,56,53,94,82,61,30.33,30.17,9,3,18,0.00
2013-9-17,67,61,56,63,58,54,97,89,84,30.27,30.07,8,2,10,0.00
2013-9-18,90,75,63,73,68,62,97,79,54,30.07,29.89,9,2,16,0.00
2013-9-19,92,79,68,72,69,65,97,73,48,29.94,29.78,22,2,23,0.20
2013-9-20,72,65,53,68,60,51,99,84,52,29.95,29.86,10,2,14,0.10
2013-9-21,72,59,50,51,49,47,97,74,44,30.01,29.92,9,2,14,0.01
2013-9-22,75,60,44,56,50,43,98,73,43,30.05,29.94,8,1,13,0.02
2013-9-23,75,63,50,56,52,48,92,70,48,30.03,29.91,14,3,17,0.00
2013-9-24,80,67,55,63,58,50,90,73,53,29.94,29.77,14,4,17,0.00
2013-9-25,81,69,60,66,62,58,95,81,57,29.90,29.80,9,1,13,0.00
2013-9-26,86,72,58,68,62,57,96,74,46,30.00,29.88,13,2,17,0.00
2013-9-27,85,72,62,67,62,58,89,70,48,30.07,29.95,13,3,17,0.00
2013-9-28,77,68,59,72,63,57,96,84,67,30.06,29.90,13,2,17,0.45
2013-9-29,73,60,48,57,51,47,99,77,44,30.11,30.00,8,1,10,0.01
2013-9-30,79,62,46,64,56,45,98,81,54,30.00,29.87,11,1,12,0.00
2013-10-1,85,71,62,70,65,60,97,82,53,30.00,29.90,9,1,11,0.00
2013-10-2,85,72,63,71,67,62,99,84,57,30.06,29.91,9,2,12,0.01
2013-10-3,86,74,68,71,68,64,95,82,59,29.93,29.76,11,2,24,0.00
2013-10-4,90,77,68,72,69,66,98,78,49,29.93,29.84,11,2,16,0.00
2013-10-5,76,63,49,70,61,48,97,91,79,29.92,29.85,11,1,12,0.20
2013-10-6,53,48,40,48,44,39,98,88,70,29.93,29.84,14,2,18,0.07
2013-10-7,71,57,51,50,47,45,90,71,40,30.14,29.93,9,3,14,0.00
2013-10-8,78,62,47,56,49,45,94,67,34,30.19,30.09,10,2,16,0.00
2013-10-9,74,60,48,53,49,46,92,68,38,30.18,30.09,10,2,11,0.00
2013-10-10,80,64,50,60,54,48,96,72,42,30.14,29.98,11,1,14,0.00
2013-10-11,80,68,54,62,57,54,98,73,42,30.01,29.85,20,2,20,0.00
2013-10-12,73,64,51,62,50,40,92,65,32,30.24,29.90,13,2,14,0.00
2013-10-13,70,56,42,43,38,33,89,55,27,30.42,30.24,7,1,10,0.00
2013-10-14,68,57,46,54,42,36,87,60,44,30.38,30.05,15,3,18,0.02
2013-10-15,66,60,49,62,54,42,97,81,58,30.04,29.89,14,3,15,0.35
2013-10-16,55,50,44,44,42,40,88,75,65,30.08,30.00,11,3,15,0.01
2013-10-17,47,46,46,45,44,44,96,94,88,30.04,30.00,0,0,1,0.02
2013-10-19,47,46,45,39,38,38,78,75,73,29.96,29.95,4,1,5,0.01
2013-10-20,73,56,40,46,41,38,93,63,32,29.96,29.80,13,2,20,0.00
2013-10-21,57,47,36,44,36,30,89,66,49,30.08,29.91,11,2,17,0.00
2013-10-22,59,44,34,46,38,32,92,82,63,30.08,29.82,16,3,24,0.02
2013-10-23,48,40,34,37,33,27,94,78,46,30.19,30.08,14,3,16,0.01
2013-10-24,45,38,27,37,28,23,94,70,46,30.47,30.18,14,3,19,0.00
2013-10-25,42,30,24,28,25,23,95,84,56,30.51,30.21,2,0,6,0.00
2013-10-26,60,48,39,41,32,26,74,55,32,30.21,30.07,18,3,20,0.00
2013-10-27,61,43,26,36,30,24,95,63,33,30.18,30.02,6,1,12,0.00
2013-10-28,68,52,36,40,34,28,83,54,28,30.25,30.08,12,1,12,0.00
2013-10-29,58,52,47,54,47,39,98,82,59,30.25,30.07,14,3,14,0.08
2013-10-30,67,62,55,67,61,54,100,99,98,30.07,29.77,10,1,13,1.10
2013-10-31,64,55,45,64,55,44,100,98,93,29.77,29.42,13,2,16,1.95
2013-11-1,57,49,42,45,43,39,99,82,56,29.89,29.60,14,4,20,0.01
2013-11-2,54,46,34,42,38,31,93,75,50,30.23,29.88,12,3,16,0.00
2013-11-3,59,52,33,38,36,32,95,54,41,30.28,30.12,15,5,18,0.00
2013-11-4,61,54,48,48,43,37,75,68,61,30.20,30.07,12,3,16,0.00
2013-11-5,58,55,53,56,53,48,97,92,75,30.22,29.94,13,3,16,0.44
2013-11-6,58,57,56,58,56,55,99,98,97,29.94,29.87,10,3,14,0.58
2013-11-7,53,42,28,40,33,28,97,72,48,30.40,30.32,12,2,15,0.04
2013-11-8,58,44,27,39,32,26,96,68,38,30.40,30.03,13,3,20,0.00
2013-11-9,67,54,44,43,38,34,83,58,29,30.31,30.02,15,3,19,0.00
2013-11-10,54,44,36,36,32,30,82,63,41,30.46,30.29,10,1,12,0.00
2013-11-11,61,43,29,50,36,23,91,75,60,30.63,30.19,14,3,20,0.01
2013-11-12,34,25,18,23,16,12,84,68,41,30.86,30.63,11,2,17,0.00
2013-11-13,47,32,16,22,17,14,92,58,28,30.77,30.30,13,2,17,0.00
2013-11-14,55,43,33,28,23,20,61,47,30,30.30,30.03,14,2,17,0.00
2013-11-15,59,48,41,45,36,26,87,63,50,30.05,29.88,12,2,13,0.00
2013-11-16,65,58,49,59,54,46,93,85,77,29.89,29.54,19,5,28,0.08
2013-11-17,74,60,44,65,52,40,91,74,48,30.00,29.31,32,6,40,0.02
2013-11-18,54,44,34,40,34,28,90,70,40,30.35,30.00,19,3,22,0.00
2013-11-19,51,39,29,32,30,25,92,70,46,30.39,30.22,12,3,13,0.00
2013-11-20,46,40,37,40,34,29,95,81,65,30.23,30.01,12,4,15,0.53
2013-11-21,50,47,39,48,43,38,97,88,76,30.31,30.08,10,1,12,0.52
2013-11-22,39,33,25,38,30,23,96,89,81,30.63,30.31,11,4,18,0.04
2013-11-23,27,22,14,23,15,9,90,73,54,30.84,30.62,14,3,18,0.00
2013-11-24,31,21,9,15,11,7,90,67,45,30.85,30.48,5,1,9,0.00
2013-11-25,37,32,26,23,19,14,72,58,48,30.48,30.22,7,1,13,0.00
2013-11-26,37,29,21,28,20,11,89,71,50,30.37,30.17,15,3,21,0.00
2013-11-27,28,21,15,14,10,8,77,64,45,30.47,30.28,10,2,12,0.00
2013-11-28,37,26,22,23,18,14,78,70,57,30.59,30.26,12,1,15,0.00
2013-11-29,44,32,19,28,22,15,87,70,50,30.65,30.40,10,2,11,0.00
2013-11-30,55,42,33,40,34,27,94,74,54,30.40,30.11,10,1,12,0.00
2013-12-1,53,40,27,40,34,26,97,80,55,30.17,29.97,5,0,6,0.00
2013-12-2,55,43,37,44,37,32,93,80,65,29.97,29.69,7,1,10,0.00
2013-12-3,58,48,40,52,46,40,98,92,82,29.70,29.60,10,1,14,0.00
2013-12-4,62,47,29,54,42,24,96,84,68,29.95,29.50,18,6,23,0.00
2013-12-5,29,23,21,24,13,11,82,64,61,30.41,29.94,13,3,17,0.00
2013-12-6,21,17,11,12,6,3,74,64,52,30.72,30.40,10,3,15,0.00
2013-12-7,22,14,7,7,5,3,83,67,45,30.83,30.57,8,1,12,0.00
2013-12-8,25,22,18,23,16,7,93,80,63,30.57,30.08,11,3,14,0.00
2013-12-9,24,18,11,21,12,6,88,78,68,30.42,30.16,14,4,17,0.00
2013-12-10,33,21,7,17,10,3,85,65,44,30.38,30.27,16,3,21,0.00
2013-12-11,26,19,4,20,10,-2,79,67,43,30.73,30.34,16,3,18,0.00
2013-12-12,40,25,4,21,12,-2,81,61,44,30.72,30.29,12,1,16,0.00
2013-12-13,37,31,24,33,26,18,97,83,58,30.29,29.99,7,1,10,0.67
2013-12-14,33,28,20,32,27,18,98,95,88,30.23,29.94,0,0,0,0.00
2013-12-15,31,24,16,26,21,14,93,89,80,30.24,30.09,2,0,6,0.00
2013-12-16,28,24,19,25,22,17,96,93,90,30.23,30.07,0,0,0,0.00
2013-12-17,40,30,20,34,25,18,96,82,61,30.33,30.21,12,2,17,0.26
2013-12-18,50,36,20,36,27,16,85,70,55,30.31,29.91,12,2,16,0.12
2013-12-19,56,49,42,49,43,36,85,80,70,29.93,29.75,11,2,14,0.00
2013-12-20,53,39,30,50,38,30,97,95,85,29.93,29.72,9,2,12,0.07
2013-12-21,31,30,29,30,29,28,97,95,94,29.93,29.66,7,2,10,0.01
2013-12-22,32,28,19,31,26,15,97,92,84,30.38,29.71,8,2,12,0.00
2013-12-23,20,12,5,17,8,-1,89,82,75,30.70,30.38,9,3,10,0.00
2013-12-24,22,12,-2,18,7,-5,87,80,74,30.69,30.39,9,2,11,0.00
2013-12-25,32,28,22,30,26,18,95,91,84,30.40,30.28,7,1,10,0.00
2013-12-26,44,33,21,37,30,20,95,87,74,30.38,30.25,10,1,15,0.11
2013-12-27,51,38,28,40,33,26,97,82,59,30.40,30.23,9,1,10,0.09
2013-12-28,55,43,32,38,33,29,90,70,50,30.25,29.92,11,1,16,0.00
2013-12-29,40,24,11,32,17,-1,89,74,55,30.38,29.91,15,5,21,0.00
2013-12-30,27,16,4,15,4,-4,75,60,45,30.45,30.25,6,1,9,0.00
2013-12-31,42,28,16,26,20,13,87,72,54,30.45,30.17,10,2,13,0.00
2014-1-1,26,21,16,22,18,14,91,87,79,30.26,30.15,12,3,17,0.00
2014-1-2,16,11,0,14,6,-4,90,80,70,30.58,30.26,12,4,18,0.00